DECAYED

STARLINK-2339, 47881 (Decayed)

Orbit data source: Space-Track

STARLINK-2339, 47881 was a payload satellite owned by SpaceX/Seattle (US) in LEO that was launched on Sun, 14 Mar 2021 UTC via an FALCON 9 launch vehicle from the Air Force Eastern Test Range (AFETR). Payload-class satellites include a variety of spacecraft equipped with specific instruments for various scientific and technological missions. These include communications satellites like Starlink; space stations such as the ISS; scientific satellites like the Hubble; Earth observation satellites from companies like Planet Labs, Umbra, and HawkEye 360; GPS; miniature CubeSats for education and research; and military/defense satellites.

Not visible in the next 10 days
Identifier
47881, 2021-021X
Orbit
Decayed
Country
Flag of USUS
Related business
Manufacturer
SpaceX/Seattle
Mission
Decayed Commercial Communications
Bus & Motor
STARLINK, Unknown motor
Mass
260 kg wet, ~248 kg dry
Launch date (UTC)
2021-03-14 (5 years ago)
Launch vehicle
FALCON 9
Launch site
Air Force Eastern Test Range (AFETR)
Object type
Payload
Rocket body
Debris
Shape & HBR
Box + 1 Pan, 10.1 m
Radar Cross Section
13.562 m², Large (>1 m²)

Expand to show TLE details & history
Last TLE update: 1 year ago

TLE from 1 year ago
0 STARLINK-2339
1 47881U 21021X   25014.93924553  .15535276  12457-4  47085-3 0  9990
2 47881  53.0267 337.8956 0002966 201.1805 266.5379 16.45108826212783
Epoch: 2025-01-14T22:32Z
TLE epoch observation values (Epoch: 2025-01-14T22:32:30.813Z)
Latitude
49.72236°
Longitude
3.08766°
Altitude
158.059 km
Speed
7.818 km/s
True Right ascension
06h 23m 25s
True Declination
49° 32' 13"
Sunlit
Object was in full shadow at epoch
Visualization orbit readout
Latitude
Unknown
Longitude
Unknown
Altitude
Unknown
Speed
Unknown
Apparent Right ascension
Unknown
Apparent Declination
Unknown
Sunlit
N/A
Visualization observer readout
Local Sidereal Time
21:34:17
Azimuth
Unknown
Elevation
Unknown
Doppler factor
Unknown
Orbital elements
Apogee altitude
154.476 km
Perigee altitude
150.602 km
Semi-major axis
6,530.676 km
Eccentricity
0.0003
Inclination
53.0267°
RAAN
337.8956°
Arg. of periapsis
201.1805°
True anomaly
266.50397°
Mean anomaly
266.5379°
Eccentric anomaly
266.52094°
Mean motion
4.1125 °/min
Orbital period
87.54 mins
BSTAR
0.00047085
Loading maneuver chart data...
Computing Atmospheric mass density...

Documentation

Showing up to 5 results
|